FW2140 Weather Reports


time (UTC)temp
F
wind
direction
speed
knots
gust
knots
rain 1hr
in
rain 24hr
in
rain mn
in
humidity
%
barometer
mb
20260505041404 56 220 0.9 2.6 0.00 0.00 0.00 66 1010.4
20260505040404 57 226 0.9 2.6 0.00 0.00 0.00 65 1010.5
20260505035405 57 220 0.9 4.3 0.00 0.00 0.00 64 1010.4
20260505033404 58 207 0.9 2.6 0.00 0.00 0.00 62 1010.2
20260505032404 58 207 0.0 4.3 0.00 0.00 0.00 61 1010.3
20260505031404 58 227 0.9 4.3 0.00 0.00 0.00 61 1010.6
20260505030404 58 249 0.9 2.6 0.00 0.00 0.00 60 1010.4
20260505025404 58 96 0.9 5.2 0.00 0.00 0.00 59 1010.3
20260505023404 59 229 1.7 4.3 0.00 0.00 0.00 57 1010.6
20260505022404 59 233 0.9 4.3 0.00 0.00 0.00 56 1010.4
20260505021404 59 243 1.7 5.2 0.00 0.00 0.00 55 1010.5
20260505015403 60 266 0.9 5.2 0.00 0.00 0.00 53 1010.5
20260505014404 60 212 1.7 5.2 0.00 0.00 0.00 52 1010.4
20260505013404 61 214 0.9 5.2 0.00 0.00 0.00 51 1010.0
20260505012404 61 258 1.7 5.2 0.00 0.00 0.00 50 1010.1
20260505011404 62 197 1.7 5.2 0.00 0.00 0.00 49 1009.8
20260505010404 62 121 0.9 5.2 0.00 0.00 0.00 49 1009.9
20260505005404 62 266 0.9 4.3 0.00 0.00 0.00 49 1009.7
20260505002404 63 142 1.7 6.1 0.00 0.00 0.00 47 1008.8
20260505000405 64 265 2.6 5.2 0.00 0.00 0.00 46 1008.3
20260504235404 65 209 0.9 5.2 0.00 0.00 0.00 45 1008.1
20260504234404 65 225 0.9 5.2 0.00 0.00 0.00 44 1008.1
20260504232404 66 246 2.6 7.0 0.00 0.00 0.00 43 1007.7
20260504231404 67 47 1.7 6.1 0.00 0.00 0.00 43 1007.3
20260504230404 68 211 1.7 5.2 0.00 0.00 0.00 42 1007.1
20260504224403 70 254 0.9 7.8 0.00 0.00 0.00 37 1006.8
20260504222404 71 144 0.9 2.6 0.00 0.00 0.00 35 1006.7
20260504221404 72 274 0.0 5.2 0.00 0.00 0.00 32 1006.5
20260504215404 74 5 1.7 6.1 0.00 0.00 0.00 30 1006.6
20260504214403 73 239 2.6 6.1 0.00 0.00 0.00 30 1006.7
20260504213404 74 259 2.6 6.1 0.00 0.00 0.00 29 1006.6
20260504211404 74 248 0.9 5.2 0.00 0.00 0.00 29 1006.5
20260504210404 74 257 1.7 7.8 0.00 0.00 0.00 29 1006.5
20260504202403 75 245 1.7 8.7 0.00 0.00 0.00 27 1006.9
20260504200404 74 302 2.6 7.8 0.00 0.00 0.00 27 1006.7
20260504195403 74 218 1.7 7.8 0.00 0.00 0.00 26 1007.0
20260504194404 74 261 1.7 5.2 0.00 0.00 0.00 27 1006.8
20260504193404 73 119 2.6 6.1 0.00 0.00 0.00 27 1006.9
20260504192404 73 251 3.5 6.1 0.00 0.00 0.00 26 1007.0
20260504190404 73 241 1.7 8.7 0.00 0.00 0.00 26 1006.9
20260504185404 73 270 3.5 7.0 0.00 0.00 0.00 27 1006.8
20260504184404 73 261 2.6 6.1 0.00 0.00 0.00 26 1007.0
20260504183404 73 260 1.7 5.2 0.00 0.00 0.00 27 1007.0
20260504182404 73 261 1.7 8.7 0.00 0.00 0.00 27 1007.1
20260504181404 72 270 6.1 8.7 0.00 0.00 0.00 28 1007.3
20260504180404 72 277 1.7 7.0 0.00 0.00 0.00 29 1007.3
20260504175404 72 150 2.6 7.8 0.00 0.00 0.00 28 1007.2
20260504173404 71 292 3.5 7.0 0.00 0.00 0.00 28 1007.5
20260504172404 72 67 1.7 7.8 0.00 0.00 0.00 29 1007.3
20260504171403 71 222 1.7 7.0 0.00 0.00 0.00 30 1007.5
20260504170405 70 282 4.3 7.8 0.00 0.00 0.00 30 1007.5
20260504160405 68 285 4.3 7.0 0.00 0.00 0.00 31 1008.2
20260504150404 67 236 1.7 7.8 0.00 0.00 0.00 34 1008.5
20260504140405 65 261 1.7 5.2 0.00 0.00 0.00 37 1009.1
20260504130404 59 266 1.7 4.3 0.00 0.00 0.00 43 1010.0
20260504110404 50 196 0.9 2.6 0.00 0.00 0.00 53 1010.4
20260504100404 48 272 0.0 1.7 0.00 0.00 0.00 55 1010.0
20260504081404 47 261 0.0 0.0 0.00 0.00 0.00 54 1010.0
20260504080404 47 221 0.0 0.0 0.00 0.00 0.00 54 1010.1
20260504050403 44 218 0.0 0.0 0.00 0.00 0.00 58 1009.9